STARLINK-35469

Last updated on Mon Oct 20 2025 00:02:07 GMT+0000 (Coordinated Universal Time)

1 65863U 25223K 25292.25002315 -.01903895 00000+0 -21755-1 0 9997 2 65863 53.1600 234.9825 0001230 87.3410 19.5054 15.64687189 3739
UTC large
Height (km)
Speed (km/s)
/
Latitude / Longitude
Inclination (degrees)
Orbital Period (minutes)
Azimuth
Elevation
Range (km)
Doppler Factor

Next 0 passes for location: London (51.5072 / 0.1276)

Sorry there are no passes over London.